Location: Gälforsberget
(66.6500°N, 22.4167°E)
Time: 08:16:24
(UTC+00:00)

USA 59 Rocket - Pass Details

Date: 11 April 2026
Orbit: 367 x 1664 km, 63.3° (Epoch: 9 May)

Event Time Altitude Azimuth Distance (km) Brightness Sun altitude
Rises 20:12:33 0° 282° (WNW) 2,251 3.7 -10.7°
Reaches altitude 10° 20:15:04 10° 257° (WSW) 1,460 2.3 -10.8°
Maximum altitude 20:16:55 15° 220° (SW) 1,273 1.5 -10.9°
Enters shadow 20:18:47 11° 187° (S) 1,587 1.7 -11.0°
